Starlink 31364

operational
NORAD ID: 59463 Int'l Des: 2024-068 Owner: SPXS Country: US Constellation: starlink
LEOCIRCULAR

About Starlink 31364

Description loading...

Live Position

Loading 3D Globe...

Upcoming Passes

Altitude History

Altitude vs Time

uPlot chart will show altitude changes over time

Two-Line Element Set

1 59463U 24068J 25350.70603522 .00003512 00000-0 13706-3 0 9998
2 59463 42.9989 139.5169 0001599 271.4553 88.6116 15.27589682 95877
Epoch: Dec 16, 2025 • Age: 15 hours

Current Status

Altitude 482.8 km
Velocity 7.63 km/s
Sub-Earth Point 18.60°N, 92.84°E
Launch Date Apr 10, 2024
Age 1.6 years
Type internet

Technical Details

Classification Payload
Mass 730.00 kg
Dry Mass 700.00 kg
Total Mass 730.00 kg
Length 0.30 m
Diameter 4.10 m
Span 29.00 m
Shape Box + pan
Manufacturer SPXS
Bus Type Starlink V2M
Phase Status In Orbit
Owner/State SPXS/US

Large Constellations

Loading constellations...